Sister Bay, Wisconsin, United States (54234)
Lat: 45.19N, Lon: 87.12W
Wx Zone: WIZ022
Local Info
Past Weather Observations for Thursday, April 10, 2014

NOTE: This archive is for the closest National Weather Service station to Sister Bay. Information may differ from the station used for current weather conditions.

Time Weather Temperature Dewpoint Humidity Pressure Winds Precip Visibility
23:55
Clear
34°F / 1°C 21°F / -6°C 60% 29.92 in
(1013 mb)
Calm - 10SM
23:35
Clear
36°F / 2°C 21°F / -6°C 56% 29.92 in
(1013 mb)
SSW 3.5 mph
(SSW 6 kph)
- 10SM
23:15
Clear
34°F / 1°C 19°F / -7°C 56% 29.92 in
(1013 mb)
SSW 5.8 mph
(SSW 9 kph)
- 10SM
22:55
Clear
36°F / 2°C 21°F / -6°C 56% 29.92 in
(1013 mb)
SSW 4.6 mph
(SSW 7 kph)
- 10SM
22:35
Clear
36°F / 2°C 19°F / -7°C 52% 29.89 in
(1012 mb)
SSW 3.5 mph
(SSW 6 kph)
- 10SM
22:15
Clear
36°F / 2°C 19°F / -7°C 52% 29.89 in
(1012 mb)
SSW 4.6 mph
(SSW 7 kph)
- 10SM
21:55
Clear
37°F / 3°C 21°F / -6°C 52% 29.89 in
(1012 mb)
SSW 4.6 mph
(SSW 7 kph)
- 10SM
21:35
Clear
36°F / 2°C 23°F / -5°C 60% 29.89 in
(1012 mb)
Calm - 10SM
21:15
Clear
37°F / 3°C 21°F / -6°C 52% 29.89 in
(1012 mb)
Calm - 10SM
20:55
Clear
37°F / 3°C 18°F / -8°C 45% 29.89 in
(1012 mb)
Calm - 10SM
20:35
Clear
39°F / 4°C 21°F / -6°C 48% 29.89 in
(1012 mb)
SSW 3.5 mph
(SSW 6 kph)
- 10SM
20:15
Clear
39°F / 4°C 21°F / -6°C 48% 29.89 in
(1012 mb)
W 3.5 mph
(W 6 kph)
- 10SM
19:55
Clear
39°F / 4°C 21°F / -6°C 48% 29.86 in
(1011 mb)
SSW 6.9 mph
(SSW 11 kph)
- 10SM
19:35
Clear
41°F / 5°C 21°F / -6°C 45% 29.86 in
(1011 mb)
W 4.6 mph
(W 7 kph)
- 10SM
19:15
Clear
43°F / 6°C 21°F / -6°C 42% 29.83 in
(1010 mb)
W 5.8 mph
(W 9 kph)
- 10SM
18:55
Clear
43°F / 6°C 21°F / -6°C 42% 29.83 in
(1010 mb)
WNW 8.1 mph
(WNW 13 kph)
- 10SM
18:35
Clear
46°F / 8°C 19°F / -7°C 34% 29.83 in
(1010 mb)
NW 11.5 mph
(NW 19 kph)
- 10SM
18:15
Clear
46°F / 8°C 21°F / -6°C 37% 29.8 in
(1009 mb)
WNW 11.5 mph
(WNW 19 kph)
- 10SM
17:55
Clear
48°F / 9°C 21°F / -6°C 34% 29.8 in
(1009 mb)
NW 11.5 mph
(NW 19 kph)
- 10SM
17:35
Clear
50°F / 10°C 21°F / -6°C 32% 29.8 in
(1009 mb)
NW 13.8 mph
(NW 22 kph)
- 10SM
17:15
Clear
50°F / 10°C 23°F / -5°C 35% 29.77 in
(1008 mb)
WNW 20.7 mph
(WNW 33 kph)
- 10SM
16:55
Clear
52°F / 11°C 25°F / -4°C 35% 29.77 in
(1008 mb)
WNW 16.1 mph
(WNW 26 kph)
- 10SM
16:35
Clear
52°F / 11°C 23°F / -5°C 32% 29.74 in
(1007 mb)
NW 17.3 mph
(NW 28 kph)
- 10SM
16:15
Clear
52°F / 11°C 21°F / -6°C 30% 29.74 in
(1007 mb)
NW 19.6 mph
(NW 32 kph)
- 10SM
15:55
Clear
54°F / 12°C 21°F / -6°C 28% 29.71 in
(1006 mb)
NW 23 mph
(NW 37 kph)
- 10SM
15:35
Clear
54°F / 12°C 27°F / -3°C 35% 29.71 in
(1006 mb)
WNW 17.3 mph
(WNW 28 kph)
- 10SM
15:15
Clear
54°F / 12°C 27°F / -3°C 35% 29.71 in
(1006 mb)
WNW 21.9 mph
(WNW 35 kph)
- 10SM
14:55
Clear
54°F / 12°C 27°F / -3°C 35% 29.68 in
(1005 mb)
NW 23 mph
(NW 37 kph)
- 10SM
14:35
Clear
54°F / 12°C 28°F / -2°C 38% 29.68 in
(1005 mb)
WNW 15 mph
(WNW 24 kph)
- 10SM
14:15
Clear
54°F / 12°C 28°F / -2°C 38% 29.68 in
(1005 mb)
NW 16.1 mph
(NW 26 kph)
- 10SM
13:35
Clear
54°F / 12°C 25°F / -4°C 33% 29.68 in
(1005 mb)
W 25.3 mph
(W 41 kph)
- 10SM
12:55
Clear
54°F / 12°C 27°F / -3°C 35% 29.65 in
(1004 mb)
W 21.9 mph
(W 35 kph)
- 10SM
12:35
Clear
54°F / 12°C 27°F / -3°C 35% 29.65 in
(1004 mb)
W 21.9 mph
(W 35 kph)
- 10SM
12:15
Clear
54°F / 12°C 28°F / -2°C 38% 29.65 in
(1004 mb)
W 18.4 mph
(W 30 kph)
- 10SM
11:55
Clear
54°F / 12°C 25°F / -4°C 33% 29.65 in
(1004 mb)
W 20.7 mph
(W 33 kph)
- 10SM
11:15
Clear
52°F / 11°C 28°F / -2°C 41% 29.65 in
(1004 mb)
NW 24.2 mph
(NW 39 kph)
- 10SM
10:55
Clear
52°F / 11°C 27°F / -3°C 38% 29.65 in
(1004 mb)
W 23 mph
(W 37 kph)
- 10SM
10:35
Clear
50°F / 10°C 27°F / -3°C 40% 29.65 in
(1004 mb)
W 17.3 mph
(W 28 kph)
- 10SM
10:15
Clear
50°F / 10°C 27°F / -3°C 40% 29.65 in
(1004 mb)
WNW 20.7 mph
(WNW 33 kph)
- 10SM
09:55
Clear
50°F / 10°C 28°F / -2°C 43% 29.65 in
(1004 mb)
NW 19.6 mph
(NW 32 kph)
- 10SM
09:35
Clear
50°F / 10°C 30°F / -1°C 47% 29.62 in
(1003 mb)
NW 21.9 mph
(NW 35 kph)
- 10SM
09:15
Clear
48°F / 9°C 30°F / -1°C 50% 29.62 in
(1003 mb)
NW 16.1 mph
(NW 26 kph)
- 10SM
08:55
Clear
48°F / 9°C 32°F / 0°C 54% 29.62 in
(1003 mb)
NW 17.3 mph
(NW 28 kph)
- 10SM
08:35
Clear
46°F / 8°C 34°F / 1°C 62% 29.62 in
(1003 mb)
NW 15 mph
(NW 24 kph)
- 10SM
08:15
Partly Cloudy
43°F / 6°C 34°F / 1°C 71% 29.62 in
(1003 mb)
NW 13.8 mph
(NW 22 kph)
- 10SM
07:55
Mostly Cloudy
43°F / 6°C 36°F / 2°C 76% 29.59 in
(1002 mb)
NW 15 mph
(NW 24 kph)
- 10SM
07:35
Overcast
43°F / 6°C 36°F / 2°C 76% 29.59 in
(1002 mb)
NW 11.5 mph
(NW 19 kph)
- 10SM
07:15
Overcast
43°F / 6°C 36°F / 2°C 76% 29.59 in
(1002 mb)
NW 10.4 mph
(NW 17 kph)
- 10SM
06:55
Overcast
43°F / 6°C 36°F / 2°C 76% 29.62 in
(1003 mb)
WNW 10.4 mph
(WNW 17 kph)
- 10SM
06:35
Overcast
43°F / 6°C 36°F / 2°C 76% 29.62 in
(1003 mb)
NW 12.7 mph
(NW 20 kph)
- 10SM
06:15
Overcast
43°F / 6°C 36°F / 2°C 76% 29.59 in
(1002 mb)
NW 6.9 mph
(NW 11 kph)
- 10SM
05:55
Overcast
43°F / 6°C 36°F / 2°C 76% 29.59 in
(1002 mb)
NW 8.1 mph
(NW 13 kph)
- 10SM
05:35
Mostly Cloudy
45°F / 7°C 36°F / 2°C 71% 29.59 in
(1002 mb)
NW 11.5 mph
(NW 19 kph)
- 10SM
05:15
Partly Cloudy
45°F / 7°C 37°F / 3°C 76% 29.59 in
(1002 mb)
NW 10.4 mph
(NW 17 kph)
- 10SM
04:55
Mostly Cloudy
46°F / 8°C 37°F / 3°C 71% 29.56 in
(1001 mb)
NW 11.5 mph
(NW 19 kph)
- 10SM
04:35
Mostly Cloudy
46°F / 8°C 36°F / 2°C 66% 29.56 in
(1001 mb)
WNW 10.4 mph
(WNW 17 kph)
- 10SM
04:15
Clear
48°F / 9°C 36°F / 2°C 62% 29.56 in
(1001 mb)
W 15 mph
(W 24 kph)
- 10SM
03:55
Clear
48°F / 9°C 36°F / 2°C 62% 29.53 in
(1000 mb)
W 11.5 mph
(W 19 kph)
- 10SM
03:35
Partly Cloudy
48°F / 9°C 36°F / 2°C 62% 29.53 in
(1000 mb)
SSW 11.5 mph
(SSW 19 kph)
- 10SM
03:15
Mostly Cloudy
48°F / 9°C 34°F / 1°C 58% 29.5 in
(999 mb)
SSW 11.5 mph
(SSW 19 kph)
- 10SM
02:55
Overcast
48°F / 9°C 34°F / 1°C 58% 29.5 in
(999 mb)
SSW 10.4 mph
(SSW 17 kph)
- 10SM
02:35
Mostly Cloudy
48°F / 9°C 34°F / 1°C 58% 29.5 in
(999 mb)
SSW 12.7 mph
(SSW 20 kph)
- 10SM
02:15
Partly Cloudy
48°F / 9°C 34°F / 1°C 58% 29.5 in
(999 mb)
SSW 15 mph
(SSW 24 kph)
- 10SM
01:55
Partly Cloudy
48°F / 9°C 34°F / 1°C 58% 29.5 in
(999 mb)
SW 16.1 mph
(SW 26 kph)
- 10SM
01:35
Partly Cloudy
48°F / 9°C 32°F / 0°C 54% 29.5 in
(999 mb)
SW 17.3 mph
(SW 28 kph)
- 10SM
01:15
Partly Cloudy
48°F / 9°C 32°F / 0°C 54% 29.5 in
(999 mb)
SW 17.3 mph
(SW 28 kph)
- 10SM
00:55
Partly Cloudy
46°F / 8°C 32°F / 0°C 57% 29.53 in
(1000 mb)
SW 11.5 mph
(SW 19 kph)
- 10SM
00:35
Overcast
45°F / 7°C 32°F / 0°C 61% 29.53 in
(1000 mb)
SW 10.4 mph
(SW 17 kph)
- 10SM
00:15
Mostly Cloudy
46°F / 8°C 32°F / 0°C 57% 29.56 in
(1001 mb)
SW 9.2 mph
(SW 15 kph)
- 10SM
Time Weather Temperature Dewpoint Humidity Pressure Winds Precip Visibility


Weather for websites

WeatherForYou.com, LLC is not responsible for any damages or problems caused by this service. Current weather conditions are obtained from the closest station including government and personal stations which may have varying degrees of accuracy. Weather forecasts are derived from the NOAA NDFD. Like all things, this site belongs to Jesus Christ... He just trusts me to maintain it. If you have any questions or comments email webmaster@weatherforyou.com

Copyright © 2014, WeatherForYou.com LLC. All rights reserved.